• Join FlightAware (Why Join?)
  • Login
  • US Flag 
08:06PM EST


 

Airport Tracker/Info


-or-


 

Live Flight TrackerFlight Track Log ✈ ASQ4209 ✈ 13-Jun-2013 ✈ KIAH - KBTR

Flight Track Log - Related Links

Times and Time Zones

All times are in EDT time to prevent confusion due to time zone crossing. See the ASQ4209 flight status page for this flight to view local times or setup timezone preferences in your user account.

Time Position Orientation Groundspeed Altitude Reporting Facility
EDT Latitude Longitude Course Direction KTS MPH feet Rate Location/Type
01:02PM 29.9614 -95.3411 90° East 160 184 800  Level Houston Center
01:03PM 29.9142 -95.2819 133° Southeast 261 300 3,000 2,182 Climbing Houston Center
01:04PM 29.8928 -95.2547 132° Southeast 242 278 4,400 2,852 Climbing Houston Center
01:04PM 29.8664 -95.2203 131° Southeast 267 307 5,900 2,903 Climbing Houston Center
01:05PM 29.9834 -95.0141 90° East  Level FlightAware Approximate
01:05PM 29.8633 -95.1783 95° East 274 315 7,400  Level Houston Center
01:05PM 29.8711 -95.1353 78° East 283 326 8,800 2,516 Climbing Houston Center
01:06PM 29.9834 -94.9077 90° East  Level FlightAware Approximate
01:06PM 29.8828 -95.0922 73° East 277 319 10,000  Level Houston Center
01:07PM 29.9834 -94.8013 90° East  Level FlightAware Approximate
01:07PM 29.9078 -94.9936 74° East 318 366 10,800  Level Houston Center
01:08PM 29.9834 -94.6949 90° East  Level FlightAware Approximate
01:08PM 29.9214 -94.8792 82° East 359 413 12,200  Level Houston Center
01:09PM 29.9367 -94.7647 81° East 360 414 14,100 2,016 Climbing Houston Center
01:10PM 29.9544 -94.6303 81° East 352 405 16,400 2,016 Climbing Houston Center
01:11PM 29.9675 -94.5208 82° East 345 397 18,300 1,355 Climbing Houston Center
01:12PM 29.9817 -94.4161 81° East 350 403 19,200 919 Climbing Houston Center
01:13PM 29.9969 -94.2958 82° East 375 432 20,200 1,065 Climbing Houston Center
01:14PM 30.0158 -94.1453 82° East 394 453 21,400 1,065 Climbing Houston Center
01:15PM 30.0314 -94.0186 82° East 399 459 22,400 774 Climbing Houston Center
01:16PM 30.0478 -93.8878 82° East 412 474 23,000 290 Climbing Houston Center
01:17PM 30.0639 -93.7536 82° East 425 489 23,000  Level Houston Center
01:18PM 30.0800 -93.6172 82° East 434 499 23,000  Level Houston Center
01:19PM 30.0994 -93.4519 82° East 439 505 23,000  Level Houston Center
01:20PM 30.1153 -93.3144 82° East 440 506 23,000  Level Houston Center
01:21PM 30.1311 -93.1767 82° East 438 504 23,000  Level Houston Center
01:22PM 30.1525 -93.0394 80° East 439 505 23,000 -48 Level Houston Center
01:23PM 30.1867 -92.8761 76° East 437 503 22,900 -774 Descending Houston Center
01:24PM 30.2122 -92.7389 78° East 440 506 21,400 -1,452 Descending Houston Center
01:25PM 30.2383 -92.6075 77° East 428 493 19,900 -1,161 Descending Houston Center
01:26PM 30.2628 -92.4783 78° East 415 478 19,000 -435 Descending Houston Center
01:27PM 30.2883 -92.3475 77° East 418 481 19,000 -677 Level Houston Center
01:28PM 30.3122 -92.2172 78° East 413 475 17,600 -2,274 Descending Houston Center
01:30PM 30.3406 -92.0717 77° East 402 463 14,300 -2,613 Descending Houston Center
01:31PM 30.3783 -91.9592 69° East 389 448 12,200 -1,500 Descending Houston Center
01:32PM 30.4097 -91.8419 73° East 387 445 11,200 -629 Descending Houston Center
01:33PM 30.4250 -91.7308 81° East 371 427 10,900 -823 Descending Houston Center
01:34PM 30.4397 -91.6389 79° East 321 369 9,500 -1,548 Descending Houston Center
01:35PM 30.4453 -91.5497 86° East 287 330 7,700 -2,226 Descending Houston Center
01:36PM 30.4394 -91.4497 94° East 263 303 4,900 -1,839 Descending Houston Center
01:37PM 30.4372 -91.3733 92° East 262 302 3,900 -968 Descending Houston Center